Powrót do katalogu

TIANYAN-26

AktywnyMilitariaSSO
NORAD 65263·PAYLOAD·🇨🇳 China
Ta nazwa satelity nie została jeszcze potwierdzona przez oficjalne źródła.

Wystrzelony Aug 19, 2025 z Jiuquan Satellite Launch Center

Loading…

Następne Przeloty (najbliższe 24 godziny)

TLE

ŚwieżeSource: Space-Track

Epoka: Sep 14, 2026, 14:51 UTC

1 65263U 25180E   26257.61921801  .00002769  00000-0  14622-3 0  9990
2 65263  97.4785  23.3884 0001620  88.7623 271.3796 15.16349909 59270

Śledź TIANYAN-26 w czasie rzeczywistym z AllMySat

Download on the App Store